EW2812 Weather Reports


Display with metric or nautical units.
time (UTC)temp
F
wind
direction
speed
MPH
gust
MPH
rain 1hr
in
rain 24hr
in
rain mn
in
humidity
%
barometer
mb
20260505193053 0 9 0.0 0.0 0.00 0.00 0.00 1011.4
20260505191601 0 5 0.0 0.0 0.00 0.00 0.00 1011.4
20260505190054 0 5 0.0 0.0 0.00 0.00 0.00 1011.4
20260505184542 0 5 0.0 0.0 0.00 0.00 0.00 1011.2
20260505183047 0 338 0.0 0.0 0.00 0.00 0.00 1011.2
20260505181533 0 336 0.0 0.0 0.00 0.00 0.00 1011.1
20260505180024 0 26 0.0 0.0 0.00 0.00 0.00 1011.1
20260505174511 0 50 0.0 0.0 0.00 0.00 0.00 1011.0
20260505173006 0 82 0.0 0.0 0.00 0.00 0.00 1010.9
20260505171502 0 57 0.0 0.0 0.00 0.00 0.00 1011.0
20260505170058 0 76 0.0 0.0 0.00 0.00 0.00 1011.1
20260505164503 0 16 0.0 0.0 0.00 0.00 0.00 1011.1
20260505163058 0 28 0.0 0.0 0.00 0.00 0.00 1011.1
20260505161616 0 57 0.0 0.0 0.00 0.00 0.00 1011.1
20260505153039 0 82 0.0 0.0 0.00 0.00 0.00 1011.3
20260505151536 0 147 0.0 0.0 0.00 0.00 0.00 1011.3
20260505124558 0 17 0.0 0.0 0.00 0.00 0.00 1011.9
20260505123054 0 349 0.0 0.0 0.00 0.00 0.00 1011.9
20260505121550 0 38 0.0 0.0 0.00 0.00 0.00 1011.9
20260505120104 0 340 0.0 0.0 0.00 0.00 0.00 1011.9
20260505114538 0 76 0.0 0.0 0.00 0.00 0.00 1011.9
20260505113042 0 69 0.0 0.0 0.00 0.00 0.00 1012.0
20260505111530 0 10 0.0 0.0 0.00 0.00 0.00 1012.1
20260505101524 0 91 0.0 0.0 0.00 0.00 0.00 1012.4
20260505100022 0 51 0.0 0.0 0.00 0.00 0.00 1012.4
20260505094513 0 9 0.0 0.0 0.00 0.00 0.00 1012.4
20260505093008 0 19 0.0 0.0 0.00 0.00 0.00 1012.5
20260505091513 0 326 0.0 0.0 0.00 0.00 0.00 1012.5
20260505090100 0 288 0.0 0.0 0.00 0.00 0.00 1012.5
20260505084554 0 11 0.0 0.0 0.00 0.00 0.00 1012.6
20260505083051 0 17 0.0 0.0 0.00 0.00 0.00 1012.6
20260505081546 0 26 0.0 0.0 0.00 0.00 0.00 1012.6
20260505080041 0 360 0.0 0.0 0.00 0.00 0.00 1012.6
20260505074541 0 360 0.0 0.0 0.00 0.00 0.00 1012.6
20260505073054 0 14 0.0 0.0 0.00 0.00 0.00 1012.6
20260505071531 0 348 0.0 0.0 0.00 0.00 0.00 1012.6
20260505070028 0 350 0.0 0.0 0.00 0.00 0.00 1012.6
20260505064535 0 350 0.0 0.0 0.00 0.00 0.00 1012.6
20260505063017 0 59 0.0 0.0 0.00 0.00 0.00 1012.7
20260505061527 0 347 0.0 0.0 0.00 0.00 0.00 1012.6
20260505060008 0 348 0.0 0.0 0.00 0.00 0.00 1012.8
20260505054505 0 350 0.0 0.0 0.00 0.00 0.00 1012.7
20260505053114 0 17 0.0 0.0 0.00 0.00 0.00 1012.8
20260505051556 0 44 0.0 0.0 0.00 0.00 0.00 1012.8
20260505041555 0 53 0.0 0.0 0.00 0.00 0.00 1012.7
20260505040043 0 69 0.0 0.0 0.00 0.00 0.00 1012.7
20260505034533 0 69 0.0 0.0 0.00 0.00 0.00 1012.7
20260505033029 0 69 0.0 0.0 0.00 0.00 0.00 1012.9
20260505031540 0 69 0.0 0.0 0.00 0.00 0.00 1012.9
20260505030026 0 69 0.0 0.0 0.00 0.00 0.00 1013.0
20260505024531 0 66 0.0 0.0 0.00 0.00 0.00 1013.3
20260505023014 0 46 0.0 0.0 0.00 0.00 0.00 1013.3
20260505021516 0 29 0.0 0.0 0.00 0.00 0.00 1013.3
20260505020015 0 22 0.0 0.0 0.00 0.00 0.00 1013.3
20260505014504 0 63 0.0 0.0 0.00 0.00 0.00 1013.4
20260505013110 0 16 0.0 0.0 0.00 0.00 0.00 1013.5
20260505011556 0 82 0.0 0.0 0.00 0.00 0.00 1013.5
20260505010052 0 45 0.0 0.0 0.00 0.00 0.00 1013.8
20260505004557 0 65 0.0 0.0 0.00 0.00 0.00 1013.9
20260505003049 0 65 0.0 0.0 0.00 0.00 0.00 1013.9
20260505001550 0 46 0.0 0.0 0.00 0.00 0.00 1013.8
20260505000057 0 98 0.0 0.0 0.00 0.00 0.00 1014.0
20260504234533 0 80 0.0 0.0 0.00 0.00 0.00 1014.1
20260504233030 0 80 0.0 0.0 0.00 0.00 0.00 1014.2
20260504231525 0 33 0.0 0.0 0.00 0.00 0.00 1014.3
20260504230021 0 76 0.0 0.0 0.00 0.00 0.00 1014.3
20260504224524 0 88 0.0 0.0 0.00 0.00 0.00 1014.2
20260504223022 0 5 0.0 0.0 0.00 0.00 0.00 1014.1
20260504221515 0 64 0.0 0.0 0.00 0.00 0.00 1014.0
20260504220013 0 36 0.0 0.0 0.00 0.00 0.00 1014.3
20260504214505 0 72 0.0 0.0 0.00 0.00 0.00 1014.4
20260504213001 0 60 0.0 0.0 0.00 0.00 0.00 1014.5
20260504211605 0 126 0.0 0.0 0.00 0.00 0.00 1014.5
20260504210055 0 57 0.0 0.0 0.00 0.00 0.00 1014.5
20260504204548 0 58 0.0 0.0 0.00 0.00 0.00 1014.4
20260504203049 0 50 0.0 0.0 0.00 0.00 0.00 1014.4
20260504201540 0 63 0.0 0.0 0.00 0.00 0.00 1014.3
20260504200041 0 72 0.0 0.0 0.00 0.00 0.00 1014.2
20260504194528 0 59 0.0 0.0 0.00 0.00 0.00 1014.0